Home > Weather > Hat Yai > Past weeks

Flag for Thailand Weather for the Past 2 Weeks in Hat Yai, Thailand

Now
88 °F

Scattered clouds.


Feels Like: 100 °F
Forecast: 76 / 90 °F
Wind: 13 mph from Northeast

Location: Hat Yai Airport

Current Time: Feb 14, 2016 at 6:11:57 PM

Latest Report: Feb 14, 2016 at 5:30 PM


Visibility: N/A

Pressure: 29.80 "Hg

Humidity: 70%

Dew point: 77 °F

Location of Hat YaiLocation

Historic Weather in Hat Yai — Graph

°F

Hat Yai Temperature Yesterday

Maximum temperature yesterday: 90 °F (at 11:30 AM)
Minimum temperature yesterday: 77 °F (at 4:30 AM)
Average temperature yesterday: 83 °F

High & Low Weather Summary for the Past Weeks

 TemperatureHumidityPressure
High91 °F (Jan 31, 2:00 PM)100% (Jan 31, 12:00 AM)29.95 "Hg (Jan 31, 12:00 AM)
Low70 °F (Feb 2, 6:30 AM)52% (Feb 2, 3:30 PM)29.74 "Hg (Feb 5, 3:30 PM)
Average81 °F81%29.85 "Hg
* Reported Jan 30 5:00 PM — Feb 14 5:00 PM, Hat Yai, Weather by CustomWeather, © 2016

Note: Actual official high and low records may vary slightly from our data, if they occured in-between our weather recording intervals... More about our weather records

Advertising

Hat Yai Weather History for the Previous 24 Hours

 ConditionsComfort  
Time TempWeatherWind HumidityBarometerVisibility
5:00 PM
Sun, Feb 14
88 °FScattered clouds.13 mph70%29.80 "HgN/A
4:30 PM88 °FScattered clouds.12 mph70%29.77 "HgN/A
4:00 PM90 °FScattered clouds.12 mph67%29.80 "HgN/A
3:30 PM90 °FScattered clouds.13 mph67%29.80 "HgN/A
2:30 PM91 °FScattered clouds.10 mph63%29.80 "HgN/A
2:00 PM90 °FScattered clouds.13 mph67%29.83 "HgN/A
1:30 PM90 °FScattered clouds.10 mph63%29.83 "HgN/A
1:00 PM90 °FScattered clouds.7 mph63%29.83 "HgN/A
12:30 PM90 °FScattered clouds.8 mph67%29.86 "HgN/A
12:00 PM90 °FScattered clouds.7 mph67%29.86 "HgN/A
11:30 AM88 °FScattered clouds.8 mph66%29.89 "HgN/A
11:00 AM88 °FScattered clouds.7 mph66%29.89 "HgN/A
10:30 AM86 °FScattered clouds.6 mph75%29.89 "HgN/A
10:00 AM84 °FScattered clouds.5 mph79%29.89 "HgN/A
9:30 AM84 °FPassing clouds.5 mph79%29.89 "HgN/A
9:00 AM82 °FPassing clouds.6 mph84%29.89 "HgN/A
8:30 AM82 °FPassing clouds.2 mph84%29.89 "HgN/A
8:00 AM81 °FPassing clouds.No wind89%29.89 "HgN/A
7:30 AM77 °FPassing clouds.No wind94%29.86 "HgN/A
7:00 AM75 °FPassing clouds.2 mph94%29.86 "HgN/A
6:30 AM75 °FPassing clouds.No wind94%29.83 "HgN/A
6:00 AM75 °FPassing clouds.No wind94%29.83 "Hg4 mi
5:30 AM75 °FPassing clouds.No wind94%29.83 "Hg5 mi
5:00 AM75 °FPassing clouds.2 mph100%29.83 "Hg5 mi
4:30 AM77 °FPassing clouds.No wind94%29.80 "Hg5 mi
4:00 AM77 °FPassing clouds.No wind94%29.80 "HgN/A
3:30 AM77 °FPassing clouds.2 mph94%29.80 "HgN/A
3:00 AM77 °FPassing clouds.2 mph94%29.80 "HgN/A
2:30 AM77 °FPassing clouds.2 mph94%29.80 "HgN/A
2:00 AM77 °FPassing clouds.3 mph94%29.83 "HgN/A
1:30 AM77 °FPassing clouds.3 mph94%29.83 "HgN/A
1:00 AM79 °FPassing clouds.2 mph94%29.86 "HgN/A
12:30 AM79 °FPassing clouds.3 mph94%29.86 "HgN/A
12:00 AM79 °FPassing clouds.5 mph94%29.86 "HgN/A
11:30 PM
Sat, Feb 13
77 °FPassing clouds.3 mph94%29.86 "HgN/A
11:00 PM79 °FPassing clouds.5 mph94%29.86 "HgN/A
10:30 PM79 °FPassing clouds.5 mph94%29.86 "HgN/A
10:00 PM79 °FPassing clouds.3 mph94%29.86 "HgN/A
9:30 PM81 °FPassing clouds.3 mph89%29.86 "HgN/A
9:00 PM81 °FPassing clouds.7 mph89%29.86 "HgN/A
8:30 PM81 °FPassing clouds.5 mph89%29.83 "HgN/A
8:00 PM82 °FPassing clouds.7 mph79%29.83 "HgN/A
7:30 PM82 °FPassing clouds.6 mph79%29.83 "HgN/A
7:00 PM82 °FPassing clouds.7 mph79%29.83 "HgN/A
6:30 PM82 °FPassing clouds.9 mph79%29.83 "HgN/A
6:00 PM84 °FPassing clouds.12 mph70%29.80 "HgN/A
Weather by CustomWeather, © 2016

See weather overviewHow to use our weather pages